Find Starlink 31485

NORAD ID: 59308 Int'l Des: 2024-056 Owner: SPXS Country: US Constellation: starlink operational
LEOCIRCULAR

現在のビュー

3D地球を読み込み中...

About Starlink 31485

Starlink 31485 (NORAD 59308) is a starlink constellation satellite (v2 mini) launched Mar 24, 2024 by SPXS of US. It operates in LEO, CIRCULAR orbit with a mass of 730.00 kg.

次回通過

Passes for default location (London). Set your location on the main map for personalized predictions.

高度履歴

Loading altitude history...

軌道要素

1 59308U 24056N 26265.51842869 .00000341 00000-0 21923-4 0 9995
2 59308 43.0021 199.3821 0000856 271.1112 88.9642 15.27577514141258
Epoch: Sep 22, 2026 • Age: 14 hours

現在のステータス

高度 483.6 km
遠地点 / 近地点 N/A
速度 7.63 km/s
衛星直下点 27.77°N, 173.08°W
打ち上げ日 Mar 24, 2024
運用期間 2.4 years
タイプ internet

技術仕様

分類 Payload
質量 730.00 kg
乾燥質量 700.00 kg
長さ 0.30 m
スパン 29.00 m
形状 ? Box + pan
製造者 SPXS
バスタイプ Starlink V2M
フェーズステータス In Orbit
所有者/国 SPXS/US

Most Searched